Regional Weather Roundup
Issued by NWS

Home | Current Version | Previous Version | Text Only | Print | Product List | Glossary On
Versions: 1 2 3 4 5 6 7 8 9 10 11 12 13 14 15 16 17 18 19 20 21 22 23 24 25 26 27 28 29 30 31 32 33 34 35 36 37 38 39 40 41 42 43 44 45 46 47 48 49 50
999
ASUS44 KLIX 152201
RWRLA
LOUISIANA WEATHER ROUNDUP
NATIONAL WEATHER SERVICE NEW ORLEANS LA
500 PM CDT MON SEP 15 2014

NOTE: "FAIR" INDICATES FEW OR NO CLOUDS BELOW 12,000 FEET WITH NO
      SIGNIFICANT WEATHER AND/OR OBSTRUCTIONS TO VISIBILITY.
      SKY/WX - SKY CONDITION AND SIGNIFICANT WEATHER.
      TMP - AIR TEMPERATURE.    DP   - DEWPOINT TEMPERATURE.
      RH  - RELATIVE HUMIDITY.  PRES - PRESSURE.
      HX  - HEAT INDEX.         WCI  - WIND CHILL INDEX.

*  THESE STATIONS ARE NOT NWS OR FAA STATIONS AND ARE NOT UNDER
   NWS QUALITY CONTROL.

LAZ040-048-061>063-065-066-069-152300-
SOUTHEAST LOUISIANA

CITY           SKY/WX    TMP DP  RH WIND       PRES   REMARKS
N.O. AUDUBON     N/A     80  76  87 MISG        N/A
N.O. INTL ARPT CLOUDY    78  74  87 S8        30.05S
N.O. LAKEFRONT CLOUDY    82  75  79 S9        30.05S
N.O. DOWNTOWN* FAIR      82  72  69 SW5       30.06S
SLIDELL        PTSUNNY   82  74  76 SE6       30.04S
BATON ROUGE    PTSUNNY   92  72  51 N5        30.03S HX  99
BOOTHVILLE     PTSUNNY   83  76  79 S6        30.06S
BELLE CHASSE   CLOUDY    81  73  76 CALM      30.05S
BOGALUSA*      FAIR      89  74  62 SW7       30.05S HX  98
GALLIANO*      NOT AVBL
NEW ROADS*     FAIR      91  73  56 E5        30.03S HX  99
GONZALES*      TSTM      78  78 100 S6        30.05R
HAMMOND*       NOT AVBL
HOUMA*         MOSUNNY   88  72  58 S6        30.04F
PORT FOURCHON* PTCLDY    86  75  70 S10       30.08S HX  95

$$

LAZ041-044-053-054-152300-
SOUTHWEST LOUISIANA

CITY           SKY/WX    TMP DP  RH WIND       PRES   REMARKS
LAKE CHARLES   PTSUNNY   90  72  55 E7        30.02S HX  97
LAFAYETTE      MOSUNNY   87  76  69 SW7       30.03R HX  97
PATTERSON      PTSUNNY   88  79  74 E5        30.07R HX 102
SALT POINT       N/A     90  76  63 VRB5      30.03S HX 101
NEW IBERIA     MOSUNNY   90  76  63 S8        30.04R HX 101
CHENAULT AIRPK MOSUNNY   90  70  51 NE6       30.03  HX  95

$$

LAZ027-028-152300-
CENTRAL LOUISIANA

CITY           SKY/WX    TMP DP  RH WIND       PRES   REMARKS
FORT POLK      PTSUNNY   87  73  62 NE6       30.05F
ALEXANDRIA INT PTSUNNY   88  73  61 NE5       30.03F HX  95
ALEXANDRIA     CLOUDY    89  75  63 N3        30.05S HX  99

$$

LAZ001-002-152300-
NORTHWEST LOUISIANA

CITY           SKY/WX    TMP DP  RH WIND       PRES   REMARKS
SHREVEPORT     PTSUNNY   84  69  60 E3        30.08R
BARKSDALE AFB  PTSUNNY   84  69  60 NE5       30.08S
DTN SHREVEPORT PTSUNNY   83  69  62 E6        30.08S

$$

LAZ014-016-152300-
NORTHEAST LOUISIANA

CITY           SKY/WX    TMP DP  RH WIND       PRES   REMARKS
MONROE         CLOUDY    84  71  65 N7        30.08F
TALLULAH       PTSUNNY   88  70  55 NE7       30.05F

$$




USA.gov is the U.S. government's official web portal to all federal, state and local government web resources and services.